English version Home page |
Updated on March 7, 2023 |
|
軌道要素Epoch 2023 Feb. 25.0 TT = JDT 2460000.5 T 2021 Dec. 8.53330 TT Rudenko q 1.9583892 (2000.0) P Q n 0.06823141 Peri. 282.63178 +0.92536680 -0.15707851 a 5.9312534 Node 87.18640 +0.29322763 +0.87339160 e 0.6698187 Incl. 20.20701 -0.24023706 +0.46099181 P 14.4 >From 116 observations 2007 Aug. 12-2022 Oct. 22, mean residual 0".7.
|
光度変化m1 = 15.0 + 5 logΔ + 10.0 log r
|
軌道要素はM.P.E.C. 2022-X67に掲載されたものです。
|